[[{"header":{"parameterUnit":"m.s-1","parameterCategory":1,"la1":30.2991,"la2":30.254,"lo1":-89.0895,"lo2":-89.0444,"dy":0.0017,"dx":0.0017,"nx":28,"ny":28,"refTime":"2025-06-04T03:00:00:Z","depth":0,"parameterNumber":2,"parameterNumberName":"U-component_of_WINDS"},"data":[0,0,0,0,0,0,0,0,0,0,0,0,0,0,0,0,0,0,0,0,0,0,0,0,0,0,0,0,0,0,0,0,0,0,0,0,0,0,0,0,0,0,0,0,0,0,0,0,0,0,0,0,0,0,0,0,0,0,-3.8156,-3.8157,0,-3.8277,-3.8278,-3.8279,-3.8279,-3.8278,-3.8276,-3.8275,-3.84,-3.8405,-3.8409,0,0,0,0,0,0,0,0,0,0,0,0,0,-3.7927,-3.7931,-3.8156,-3.8157,-3.8159,-3.8276,-3.8278,-3.828,-3.828,-3.8278,-3.8276,-3.8274,-3.8398,-3.8404,-3.841,0,0,0,0,0,0,0,0,0,0,0,0,0,-3.8035,-3.7932,-3.8156,-3.8173,-3.8176,-3.8276,-3.8278,-3.828,-3.828,-3.8278,-3.8275,-3.8273,-3.8397,-3.8403,-3.8411,-3.8502,0,0,-3.8433,-3.8436,0,0,0,0,0,0,0,0,-3.8028,-3.8043,-3.8169,-3.8172,-3.8175,-3.826,-3.8243,-3.8355,-3.8281,-3.8241,-3.8275,-3.8272,-3.8356,-3.8366,-3.8394,-3.8508,-3.8513,-3.8433,-3.8438,-3.8441,-3.8443,0,0,0,0,0,0,0,-3.8021,-3.8038,-3.8204,-3.8171,-3.8175,-3.8175,-3.8188,-3.8264,-3.831,-3.8244,-3.8244,-3.8258,-3.8357,-3.8387,-3.8397,-3.8515,-3.8433,-3.8439,-3.8444,-3.8447,-3.8708,-3.8711,0,0,0,0,0,0,-3.801,-3.8032,-3.82,-3.8207,-3.8095,-3.8181,-3.8195,-3.8236,-3.8309,-3.8318,-3.826,-3.8258,-3.8376,-3.8388,-3.8401,-3.851,-3.8441,-3.8447,-3.8452,-3.8706,-3.8709,-3.8712,0,0,0,0,0,0,-3.8005,-3.8025,-3.8195,-3.812,-3.8141,-3.8188,-3.8233,-3.8239,-3.8269,-3.8321,-3.833,-3.8282,-3.8374,-3.8391,-3.8476,-3.8515,-3.8451,-3.8457,-3.8702,-3.8707,-3.871,-3.8731,0,0,0,0,0,0,-3.7998,-3.8023,-3.8058,-3.812,-3.8145,-3.8268,-3.8235,-3.8243,-3.8281,-3.8279,-3.8344,-3.8353,-3.8374,-3.8466,-3.8483,-3.8524,-3.8463,-3.8699,-3.8704,-3.8709,-3.8727,-3.8736,-3.8743,0,0,0,0,0,-3.799,-3.806,-3.806,-3.808,-3.819,-3.827,-3.8284,-3.8307,-3.8285,-3.832,-3.8353,-3.8351,-3.8509,-3.8474,-3.8495,-3.8537,-3.8697,-3.8703,-3.8709,-3.8724,-3.8734,-3.8742,0,0,0,0,0,0,-3.8002,-3.8069,-3.8069,-3.8161,-3.821,-3.827,-3.8315,-3.8317,-3.8373,-3.8369,-3.8395,-3.841,-3.8494,-3.8525,-3.8486,-3.8629,-3.86,-3.861,-3.8605,-3.8615,-3.8622,-3.8611,-3.8469,0,0,0,0,0,-3.8015,-3.8074,-3.813,-3.8206,-3.823,-3.8269,-3.8304,-3.8317,-3.8369,-3.839,-3.8429,-3.848,-3.8541,-3.858,-3.8639,-3.8733,-3.8746,-3.8773,-3.878,-3.8786,-3.8794,-3.8843,-3.8855,-3.8731,-3.8731,-3.8731,0,0,-3.8043,-3.8087,-3.8123,-3.8209,-3.8248,-3.8308,-3.8286,-3.8351,-3.8396,-3.84,-3.8481,-3.8513,-3.8571,-3.866,-3.8701,-3.8688,-3.8831,-3.8794,-3.8798,-3.8802,-3.885,-3.8862,-3.8872,-3.8735,-3.8734,-3.8734,0,0,-3.8124,-3.8164,-3.823,-3.827,-3.8329,-3.8354,-3.837,-3.843,-3.845,-3.8533,-3.8537,-3.8591,-3.8696,-3.8736,-3.877,-3.8866,-3.8865,-3.8886,-3.8924,-3.8972,-3.8981,-3.899,-3.9021,-3.9032,-3.8894,-3.8894,-3.8894,0,-3.8151,-3.8241,-3.8265,-3.8329,-3.8366,-3.8372,-3.8439,-3.8477,-3.8553,-3.8578,-3.8563,-3.8693,-3.8733,-3.883,-3.8853,-3.8882,-3.89,-3.8876,-3.8978,-3.8987,-3.8995,-3.9025,-3.9037,-3.8895,-3.8895,-3.8895,-3.8895,0,-3.827,-3.8333,-3.838,-3.8451,-3.8494,-3.8559,-3.8592,-3.8633,-3.8643,-3.8669,-3.8753,-3.8801,-3.8869,-3.8894,-3.8905,-3.8992,-3.8982,-3.8972,-3.8943,-3.9008,-3.9037,-3.9049,-3.8898,-3.8897,-3.8897,-3.8896,0,0,-3.836,-3.8443,-3.8459,-3.8491,-3.8557,-3.8605,-3.8671,-3.8737,-3.877,-3.8823,-3.8877,-3.8966,-3.8956,-3.8995,-3.9011,-3.9054,-3.9123,-3.9039,-3.904,-3.9049,-3.9219,-3.9223,-3.9236,-3.9124,-3.9126,-3.9128,-3.9213,0,-3.8445,-3.856,-3.8583,-3.8683,-3.874,-3.8747,-3.8804,-3.885,-3.8877,-3.893,-3.8961,-3.9021,-3.9006,-3.9029,-3.9072,-3.9105,-3.9157,-3.91,-3.9173,-3.9175,-3.9154,-3.9252,-3.9257,-3.9334,-3.9225,-3.9227,-3.9228,0,-3.8559,-3.8612,-3.8717,-3.8774,-3.8799,-3.8849,-3.891,-3.8961,-3.9014,-3.903,-3.9073,-3.9084,-3.9152,-3.9123,-3.9216,-3.9177,-3.9209,-3.923,-3.9233,-3.9238,-3.9203,-3.9256,-3.936,-3.937,-3.9247,-3.9245,-3.9244,0,-3.8609,-3.8708,-3.8783,-3.881,-3.8879,-3.8914,-3.8944,-3.8995,-3.9032,-3.9086,-3.911,-3.9172,-3.9205,-3.9253,-3.928,-3.9256,-3.937,-3.9343,-3.9384,-3.9383,-3.9405,-3.9403,-3.9512,-3.9432,-3.9432,-3.9431,-3.9431,0,-3.8699,-3.8762,-3.8806,-3.8851,-3.8922,-3.8948,-3.9018,-3.9048,-3.9093,-3.9145,-3.9157,-3.9205,-3.9239,-3.9292,-3.9315,-3.9387,-3.9403,-3.9417,-3.9421,-3.9414,-3.9412,-3.9432,-3.9426,-3.9435,-3.9434,-3.9433,-3.9433,0,-3.8766,-3.8798,-3.8879,-3.8937,-3.8953,-3.9003,-3.9052,-3.9097,-3.9125,-3.919,-3.9206,-3.925,-3.9313,-3.9345,-3.9425,-3.9439,-3.952,-3.9523,-3.9501,-3.9502,-3.954,-3.9534,-3.9664,-3.9681,-3.9592,-3.9593,-3.9594,0,-3.8819,-3.8868,-3.8931,-3.8965,-3.8996,-3.9053,-3.909,-3.9119,-3.9157,-3.9221,-3.9257,-3.9321,-3.9372,-3.9473,-3.9511,-3.9572,-3.9574,-3.9616,-3.9583,-3.9573,-3.9571,-3.9566,-3.957,-3.962,-3.9621,-3.9622,-3.9622,0,-3.891,-3.8923,-3.8976,-3.9035,-3.9079,-3.9127,-3.9175,-3.9203,-3.9239,-3.9282,-3.9345,-3.9386,-3.9466,-3.9528,-3.9591,-3.9623,-3.9628,-3.9633,-3.9645,-3.9635,-3.9619,-3.9625,-3.9513,-3.9629,-3.9628,-3.9627,-3.9627,-3.9627,-3.897,-3.9012,-3.9062,-3.9121,-3.9159,-3.9203,-3.9246,-3.9279,-3.9332,-3.9398,-3.9413,-3.948,-3.9531,-3.9616,-3.965,-3.9703,-3.9694,-3.9712,-3.9716,-3.9719,-3.9719,-3.9614,-3.9715,-3.9715,-3.9715,-3.9714,-3.9714,0,-3.9058,-3.909,-3.9144,-3.9209,-3.9255,-3.9256,-3.9308,-3.9346,-3.9405,-3.9452,-3.9502,-3.9575,-3.9635,-3.9679,-3.974,-3.9774,-3.9778,-3.9789,-3.9785,-3.9791,-3.9725,-3.9707,-3.9784,-3.9784,-3.9784,-3.9784,-3.9784,-3.9784,-3.9109,-3.9179,-3.9198,-3.9288,-3.9321,-3.9385,-3.9414,-3.9454,-3.9492,-3.9572,-3.9621,-3.9649,-3.9694,-3.9759,-3.9814,-3.9826,-3.9846,-3.9857,-3.9867,-3.9804,-3.9796,-3.9789,-3.9772,-3.9862,-3.9862,-3.9929,-3.993,-3.993]},{"header":{"parameterUnit":"m.s-1","parameterCategory":1,"la1":30.2991,"la2":30.254,"lo1":-89.0895,"lo2":-89.0444,"dy":0.0017,"dx":0.0017,"nx":28,"ny":28,"refTime":"2025-06-04T03:00:00:Z","depth":0,"parameterNumber":3,"parameterNumberName":"V-component_of_WINDS"},"data":[0,0,0,0,0,0,0,0,0,0,0,0,0,0,0,0,0,0,0,0,0,0,0,0,0,0,0,0,0,0,0,0,0,0,0,0,0,0,0,0,0,0,0,0,0,0,0,0,0,0,0,0,0,0,0,0,0,0,1.2446,1.2444,0,1.23,1.2299,1.2297,1.2157,1.2155,1.2154,1.2152,1.2001,1.1999,1.1996,0,0,0,0,0,0,0,0,0,0,0,0,0,1.2601,1.2599,1.2446,1.2444,1.2442,1.2301,1.2299,1.2297,1.2157,1.2155,1.2153,1.2151,1.2002,1.1999,1.1996,0,0,0,0,0,0,0,0,0,0,0,0,0,1.2503,1.2598,1.2446,1.2356,1.2346,1.2301,1.2299,1.2296,1.2158,1.2155,1.2153,1.215,1.2003,1.1999,1.1996,1.2027,0,0,1.1985,1.1983,0,0,0,0,0,0,0,0,1.2508,1.2497,1.2371,1.2362,1.2351,1.2244,1.2298,1.2206,1.2159,1.2229,1.2152,1.2149,1.2084,1.2073,1.2052,1.202,1.2014,1.1984,1.1982,1.1981,1.198,0,0,0,0,0,0,0,1.2515,1.2503,1.2388,1.2369,1.2357,1.2322,1.2305,1.228,1.2173,1.2223,1.2213,1.2197,1.2078,1.2056,1.2047,1.2012,1.1985,1.1981,1.1979,1.1978,1.1998,1.2,0,0,0,0,0,0,1.2536,1.2509,1.2393,1.2384,1.2425,1.2321,1.2302,1.2281,1.2173,1.2154,1.22,1.2191,1.2063,1.2052,1.2042,1.2071,1.1981,1.1978,1.1976,1.1995,1.1998,1.2001,0,0,0,0,0,0,1.254,1.2527,1.2399,1.2444,1.2425,1.2321,1.2299,1.228,1.2257,1.2156,1.2136,1.2197,1.2061,1.2047,1.2032,1.2063,1.1976,1.1973,1.1992,1.1996,1.2,1.213,0,0,0,0,0,0,1.2545,1.253,1.2541,1.2445,1.2423,1.2393,1.2301,1.2279,1.2252,1.224,1.2148,1.213,1.2057,1.2038,1.2028,1.2057,1.197,1.1989,1.1994,1.1999,1.2123,1.2138,1.2152,0,0,0,0,0,1.2551,1.2583,1.2542,1.2529,1.2435,1.2395,1.2382,1.2298,1.2255,1.2265,1.22,1.2133,1.2062,1.2038,1.2026,1.2054,1.1986,1.1992,1.1998,1.2116,1.2135,1.2151,0,0,0,0,0,0,1.2685,1.2569,1.2522,1.2524,1.2471,1.2371,1.2381,1.2321,1.2278,1.2268,1.2166,1.2146,1.2143,1.2097,1.2072,1.2079,1.2015,1.2019,1.2109,1.2126,1.214,1.2151,1.1967,0,0,0,0,0,1.2715,1.2692,1.2592,1.2603,1.2579,1.2486,1.2465,1.2405,1.2345,1.2321,1.2255,1.2199,1.2163,1.2142,1.2104,1.2116,1.2093,1.2129,1.2144,1.2156,1.216,1.2162,1.2177,1.2021,1.2021,1.2021,0,0,1.2775,1.2709,1.2701,1.2628,1.258,1.2558,1.2467,1.2448,1.243,1.2318,1.23,1.225,1.218,1.2179,1.2175,1.214,1.2199,1.2164,1.2175,1.2171,1.217,1.2185,1.2198,1.2025,1.2024,1.2024,0,0,1.2875,1.2824,1.2827,1.278,1.2708,1.2646,1.2647,1.2557,1.2519,1.25,1.2415,1.2393,1.2335,1.2288,1.2257,1.2341,1.2277,1.2331,1.2406,1.2409,1.2421,1.2432,1.246,1.2472,1.2336,1.2336,1.2337,0,1.2959,1.2924,1.2836,1.2822,1.2792,1.2691,1.2693,1.2652,1.2571,1.2552,1.2515,1.244,1.2386,1.2372,1.2393,1.2371,1.2368,1.234,1.2427,1.2436,1.2445,1.2471,1.2482,1.2343,1.2343,1.2342,1.2341,0,1.3031,1.3008,1.3019,1.2944,1.2916,1.291,1.2821,1.2802,1.2746,1.2688,1.2669,1.2601,1.2548,1.254,1.2485,1.2518,1.2499,1.2446,1.238,1.2468,1.2491,1.25,1.2353,1.2351,1.2349,1.2347,0,0,1.3208,1.3086,1.3092,1.3056,1.297,1.295,1.294,1.2888,1.2874,1.2822,1.281,1.2764,1.2714,1.2679,1.2618,1.2621,1.269,1.2567,1.2564,1.2591,1.2722,1.2762,1.2775,1.2648,1.265,1.2651,1.2728,0,1.3292,1.3268,1.3189,1.3189,1.3166,1.307,1.3061,1.3007,1.2952,1.2924,1.2864,1.2832,1.277,1.2748,1.2747,1.2682,1.2715,1.2676,1.2635,1.2635,1.2654,1.2787,1.2828,1.2904,1.2736,1.2738,1.2739,0,1.3386,1.3341,1.3339,1.3254,1.3241,1.3235,1.3181,1.3156,1.3092,1.3052,1.3014,1.2946,1.2929,1.2869,1.2844,1.2819,1.2798,1.2764,1.2765,1.2756,1.2691,1.2781,1.2926,1.2937,1.2752,1.2751,1.275,0,1.3515,1.3454,1.3444,1.3417,1.3318,1.3315,1.3274,1.3207,1.3182,1.3135,1.3117,1.3069,1.3042,1.3006,1.2926,1.289,1.291,1.2843,1.2875,1.2878,1.2882,1.2883,1.3025,1.2872,1.2872,1.2872,1.2871,0,1.3615,1.3617,1.3501,1.3495,1.3494,1.3404,1.3405,1.3354,1.3297,1.3279,1.3193,1.3178,1.3074,1.3047,1.2985,1.2973,1.2962,1.2928,1.2911,1.2935,1.2939,1.2919,1.2911,1.2874,1.2874,1.2873,1.2873,0,1.3758,1.368,1.3663,1.3571,1.3548,1.3551,1.3472,1.3462,1.3403,1.3382,1.3371,1.3278,1.3242,1.316,1.3101,1.3059,1.3062,1.3033,1.3084,1.3073,1.311,1.3107,1.3242,1.3255,1.3096,1.3098,1.3099,0,1.3827,1.3826,1.3734,1.3716,1.3678,1.3651,1.3624,1.3536,1.3511,1.3439,1.3438,1.3396,1.3356,1.3302,1.3229,1.3184,1.3152,1.3202,1.3144,1.3168,1.3151,1.3151,1.315,1.3215,1.3217,1.3219,1.322,0,1.3957,1.3918,1.3884,1.3836,1.3807,1.3765,1.3718,1.3708,1.3608,1.3585,1.3547,1.3517,1.3458,1.3416,1.336,1.3315,1.3251,1.3239,1.3244,1.3268,1.3297,1.3281,1.3118,1.3236,1.3235,1.3233,1.3232,1.3232,1.4063,1.4058,1.3993,1.3957,1.3913,1.3871,1.3858,1.3798,1.3765,1.371,1.366,1.3627,1.3563,1.3481,1.3442,1.3414,1.3381,1.3389,1.339,1.3393,1.3403,1.3303,1.3403,1.3403,1.3402,1.3402,1.3401,0,1.4187,1.4141,1.411,1.4047,1.4019,1.3963,1.3908,1.3888,1.3861,1.3807,1.3771,1.3728,1.3687,1.3611,1.3564,1.3556,1.3525,1.3546,1.3545,1.3536,1.3435,1.3435,1.3572,1.3572,1.3572,1.3572,1.3572,1.3572,1.4249,1.4237,1.4192,1.4157,1.411,1.4078,1.4052,1.4013,1.397,1.3926,1.3892,1.3843,1.378,1.3728,1.3688,1.3666,1.3652,1.3683,1.3652,1.3559,1.3543,1.3528,1.3527,1.3681,1.3681,1.3755,1.3756,1.3756]}]]